COSMOS 2251 DEB, 33908

Orbit data source: Space-Track

COSMOS 2251 DEB, 33908 is space debris in LEO originally from a launch on Wed, 16 Jun 1993 UTC launched from the Plesetsk Missile And Space Complex (PKMTR). The debris from Iridium 33, an American commercial communications satellite, has been tracked extensively since its accidental collision with the defunct Russian satellite Cosmos 2251 in 2009. This event, occurring at high speed in low Earth orbit (LEO), generated thousands of pieces of space debris, significantly increasing the risk of further collisions. The Iridium 33 debris cloud has impacted space traffic management and orbital debris mitigation strategies, making it a subject of ongoing study in space situational awareness.

Loading next visibility...
Identifier
33908, 1993-036DM
Orbit
LEO
Country
Flag of CISCIS
Related business
Manufacturer
Unknown
Mission
Spacecraft
Bus & Motor
Unknown
Mass
Unknown
Launch date (UTC)
1993-06-16 (33 years ago)
Launch vehicle
Unknown
Launch site
Plesetsk Missile And Space Complex (PKMTR)
Object type
Payload
Rocket body
Debris
Shape & HBR
Unknown shape, 0.1 m
Radar Cross Section
Medium (>0.1 m² and <1 m²)

Expand to show TLE details & history
Last TLE update: 7 hours ago

TLE from 7 hours ago
0 COSMOS 2251 DEB
1 33908U 93036DM  26178.15029258  .00002808  00000-0  13203-2 0  9999
2 33908  73.8362 216.7517 0217498 205.7658 153.2521 14.08813789882384
Epoch: 2026-06-27T03:36Z
TLE epoch observation values (Epoch: 2026-06-27T03:36:25.278Z)
Latitude
0.00001°
Longitude
-112.6222°
Altitude
1,007.347 km
Speed
7.276 km/s
True Right ascension
14h 27m 00s
True Declination
0° 00' 00"
Sunlit
Object was in daylight at epoch
Visualization orbit readout
Latitude
Unknown
Longitude
Unknown
Altitude
Unknown
Speed
Unknown
Apparent Right ascension
Unknown
Apparent Declination
Unknown
Sunlit
N/A
Visualization observer readout
Local Sidereal Time
21:33:40
Azimuth
Unknown
Elevation
Unknown
Doppler factor
Unknown
Orbital elements
Apogee altitude
1,018.555 km
Perigee altitude
703.651 km
Semi-major axis
7,239.24 km
Eccentricity
0.02175
Inclination
73.8362°
RAAN
216.7517°
Arg. of periapsis
205.7658°
True anomaly
154.34714°
Mean anomaly
153.2521°
Eccentric anomaly
153.80225°
Mean motion
3.52374 °/min
Orbital period
102.16 mins
BSTAR
0.0013203
Loading maneuver chart data...
Computing Atmospheric mass density...

Documentation

Showing up to 5 results
|